Terminal Aerodrome Forecast
Issued by NWS Louisville, KY

Home | Current Version | Previous Version | Text Only | Print | Product List | Glossary On
Versions: 1 2 3 4 5 6 7 8 9 10 11 12 13 14 15 16 17 18 19 20 21
000
FTUS43 KLMK 300500
TAFBWG
TAF
KBWG 300520Z 3006/0106 VRB03KT P6SM FEW250
     FM300800 VRB03KT 3SM BR FEW250
     FM301300 25008G15KT P6SM SCT050 PROB30 3018/3023 VRB20G30KT 2SM
      TSRA BKN040CB
     FM010000 VRB04KT P6SM FEW050 SCT250=

USA.gov is the U.S. government's official web portal to all federal, state and local government web resources and services.